User: anonymous   Login
Location: Austin
(30.3000°N, 97.7500°W)
Time: 14:35:24
(UTC-05:00)
Language:

CZ-2D R/B - Orbit

View from above orbital plane
View from above orbital plane
View from above satellite
View from above satellite

Ground track
Ground track

The orbit data is extracted from the following two-line orbital elements,

1 36597U 10027B   24198.50282323  .00003650  00000-0  31583-3 0  9996
2 36597  98.0444 194.8539 0056248  99.9056 260.8520 14.96613361765846
Epoch (UTC): 16 July 2024 12:04:03
Eccentricity: 0.0056248
inclination: 98.0444°
perigee height: 538 km
apogee height: 616 km
right ascension of ascending node: 194.8539°
argument of perigee: 99.9056°
revolutions per day: 14.96613361
mean anomaly at epoch: 260.8520°
orbit number at epoch: 76584

The dashed part of the orbit path shows where the satellite is in the earth's shadow,  

DLR